Theta_e
313 313 314 314 314 315 315 315 316 317 317 318 318 318 319 320 322 324 329 333 334 336 336 344 350 347 347 350 351 354 359 357 347 350 349 348 350 349 350 350 351 350 348 350 351
313 313 314 314 314 315 315 315 315 316 316 317 317 317 318 320 323 327 331 331 334 335 339 347 347 346 347 353 356 355 360 354 347 347 349 349 350 349 351 350 352 352 350 350 350
314 314 314 314 314 314 314 315 315 315 316 316 316 316 317 319 325 333 332 335 334 335 342 344 344 345 349 354 355 353 355 350 348 349 348 349 347 349 351 350 352 351 350 349 349
316 315 315 315 314 314 314 314 315 315 315 315 316 316 316 317 333 338 332 331 335 334 344 343 342 346 351 356 354 356 351 350 349 350 351 349 348 348 349 350 350 351 350 348 349
316 316 316 316 315 315 315 314 314 314 315 315 315 315 315 326 328 330 335 329 334 336 343 342 343 345 351 352 352 353 351 349 348 350 350 350 348 349 346 349 349 352 349 348 347
316 317 317 316 316 316 316 315 315 314 314 315 315 315 316 325 328 326 330 334 334 339 340 341 347 346 348 351 352 349 350 350 349 350 350 351 349 347 347 348 352 352 350 349 346
315 315 317 317 317 316 316 316 316 315 315 314 315 314 319 323 327 332 333 337 336 338 340 343 347 347 348 350 350 350 352 353 350 350 349 350 350 348 350 349 353 353 352 350 347
314 314 315 316 317 317 317 317 317 316 315 315 314 314 321 323 324 324 334 337 338 338 342 344 345 346 348 352 352 352 353 356 349 348 349 350 352 349 349 347 351 353 352 351 348
314 313 313 314 314 316 317 316 317 317 316 315 315 319 323 323 321 324 329 338 339 338 340 341 343 348 351 353 352 351 356 354 350 348 349 349 351 348 346 348 350 352 352 351 349
314 314 312 312 313 315 316 316 317 317 317 314 322 324 322 322 323 324 326 338 339 339 341 343 347 350 350 352 356 353 357 355 351 349 347 349 349 348 347 347 349 350 350 351 350
314 314 314 312 311 313 316 317 322 326 322 322 323 321 325 323 325 325 326 335 335 339 345 345 347 348 347 347 350 350 348 351 352 350 347 348 349 349 348 348 346 346 348 349 349
314 314 315 314 311 312 313 319 321 319 322 323 322 322 322 323 324 328 327 331 334 339 340 345 346 343 344 350 349 348 347 351 354 349 348 349 351 349 351 349 348 344 346 348 348
314 314 315 314 311 314 317 320 318 318 321 321 321 322 322 322 324 327 328 329 336 338 341 341 344 342 346 349 349 348 351 356 356 351 347 350 349 351 351 350 348 346 343 345 346
314 315 315 311 316 318 318 318 317 317 322 324 323 323 322 322 323 326 330 330 335 339 340 341 339 341 343 348 348 346 349 352 353 354 351 348 353 351 351 352 350 349 344 342 344
313 314 315 312 311 315 319 317 316 318 325 326 325 324 322 323 325 324 328 330 334 339 340 341 339 340 344 346 347 347 347 349 351 356 350 347 348 349 349 352 352 350 347 342 342
314 315 315 315 314 314 317 317 318 325 325 324 325 324 325 324 324 325 326 330 333 337 339 340 338 338 343 345 346 348 350 349 347 353 361 350 347 348 348 352 352 350 349 346 340
314 315 315 316 319 316 316 318 324 326 326 325 327 327 325 325 325 327 327 332 336 339 341 340 339 339 339 348 350 350 352 358 356 357 362 351 355 350 353 347 350 351 350 348 344
314 314 312 317 317 314 317 321 326 327 326 327 327 328 328 328 326 326 328 330 334 337 340 342 341 342 340 347 351 350 351 355 358 361 357 353 350 345 349 347 345 346 349 350 348
315 318 320 318 315 316 319 323 326 327 326 326 326 326 328 328 328 326 329 330 333 335 339 342 341 340 342 345 347 350 354 348 351 352 361 353 348 349 349 350 347 346 348 349 349
317 321 320 318 316 317 322 323 325 326 324 325 325 327 328 329 329 328 328 331 332 334 336 339 342 339 343 344 350 352 348 355 353 361 366 357 353 350 352 349 347 347 347 347 346
322 323 318 319 315 318 323 325 325 324 324 324 325 326 327 327 330 329 328 330 332 334 335 338 340 340 347 347 350 354 353 350 353 357 366 360 360 347 350 350 347 347 345 347 348
323 328 317 316 320 322 324 325 323 323 323 323 324 325 325 326 326 328 331 330 332 333 335 337 339 345 350 345 345 347 347 351 351 355 359 358 359 350 351 349 349 349 355 354 354
321 323 319 317 326 326 325 324 324 323 323 323 323 324 325 325 327 328 329 331 331 334 336 337 339 343 351 351 347 346 347 347 347 349 354 354 357 349 350 349 348 354 355 357 356
321 325 325 320 321 324 325 326 326 325 324 322 323 323 324 324 326 327 329 329 329 333 331 338 338 340 347 349 345 346 345 346 346 350 350 348 352 350 350 348 348 352 354 355 356
322 324 322 324 326 326 325 325 325 327 326 325 326 324 324 325 326 326 326 328 328 331 333 336 339 340 341 344 345 345 344 343 350 346 346 345 350 345 346 349 347 347 354 355 357
317 319 319 320 321 324 322 325 325 326 327 327 328 327 327 326 327 328 328 328 331 331 333 335 339 340 341 342 344 343 343 342 345 345 345 345 346 346 343 344 346 346 350 354 356
314 315 317 319 323 324 324 324 324 325 325 326 327 328 328 328 327 327 327 329 330 332 332 334 337 339 341 342 342 346 342 343 343 343 346 348 347 346 345 343 340 345 345 353 355
Wind_Speed
12 13 14 14 15 14 15 15 15 15 15 16 16 16 17 17 15 16 13 11 12 12 14 15 14 10 8 10 12 7 7 8 7 15 10 10 12 5 8 10 4 3 4 28 31
14 14 15 15 16 16 16 16 17 16 16 16 17 16 17 19 19 19 15 15 13 17 18 20 18 13 13 10 9 8 6 13 11 9 8 6 7 10 9 12 9 11 19 29 33
15 16 16 16 16 17 17 17 18 17 17 17 17 16 16 17 21 10 14 14 17 18 18 15 12 14 14 12 13 13 13 12 10 7 3 5 5 10 12 9 17 18 25 30 32
16 16 17 17 18 18 18 18 18 18 17 18 17 16 14 11 7 6 6 2 16 19 20 17 15 18 16 14 14 16 16 11 11 2 3 7 4 9 8 11 17 20 26 30 31
17 18 18 18 19 19 19 19 19 19 18 18 17 17 12 12 20 10 11 9 15 22 25 21 19 19 18 11 11 12 14 15 9 6 8 1 7 2 7 12 13 21 26 28 28
17 18 19 19 19 19 19 19 19 19 18 17 16 16 13 19 12 8 7 13 17 26 25 23 17 18 18 13 13 16 13 16 13 11 9 11 9 8 10 10 17 22 24 26 28
18 18 18 19 20 19 19 19 19 19 18 17 16 15 14 25 8 8 12 16 20 28 24 23 20 15 19 17 14 13 16 17 16 14 9 13 14 13 17 13 20 21 22 24 26
19 19 19 19 19 20 19 19 19 18 17 16 14 12 15 12 17 22 11 16 21 22 22 18 17 16 23 10 12 15 19 18 19 16 10 16 8 13 14 17 19 21 21 24 26
20 20 20 20 20 19 18 17 18 18 16 13 10 10 20 11 20 18 19 20 21 22 18 13 17 21 17 14 17 12 16 21 10 15 12 11 12 14 17 18 18 20 21 24 25
20 21 21 20 20 19 16 15 15 15 14 7 11 9 23 18 19 20 23 21 21 21 19 17 15 16 16 14 15 9 10 17 8 14 14 15 15 14 16 18 18 21 22 24 26
23 23 22 20 19 17 15 7 7 7 19 19 15 20 5 18 9 19 27 26 19 22 20 24 15 19 22 15 7 9 13 23 27 19 11 15 17 14 15 15 18 20 23 24 25
25 25 25 21 18 16 13 6 8 5 11 21 28 26 23 10 13 19 26 29 26 22 22 19 22 22 17 23 10 12 8 33 33 11 14 11 17 19 15 13 17 19 23 25 25
27 28 27 20 17 12 8 14 8 7 10 21 29 30 31 21 20 24 27 33 25 25 24 24 22 20 9 10 15 14 24 37 18 1 15 12 18 18 17 14 17 17 22 24 26
29 29 28 18 5 5 6 5 7 5 7 16 20 23 29 26 26 23 28 33 25 26 26 22 23 18 20 16 15 16 6 5 8 8 12 18 12 20 19 16 17 20 22 25 27
32 31 28 18 10 4 4 2 2 4 6 9 16 4 24 32 12 32 26 33 29 23 19 25 19 18 16 16 17 15 5 2 9 20 16 24 16 22 24 21 20 18 24 23 27
34 35 26 10 10 9 7 4 2 7 12 10 12 12 16 27 33 24 30 31 31 25 25 27 22 23 16 13 15 13 5 4 12 15 15 19 17 14 23 22 22 22 27 26 27
33 29 17 6 3 4 5 6 7 10 6 10 14 17 19 19 26 24 28 26 24 23 23 25 23 18 15 7 6 15 11 1 2 8 13 19 24 10 28 24 23 25 28 29 29
31 17 11 3 6 8 8 9 11 10 23 4 3 14 17 17 24 27 27 25 29 26 18 20 19 22 20 15 17 11 13 5 5 12 15 24 16 21 2 18 28 30 32 31 32
21 6 3 7 9 7 14 12 10 16 5 11 9 12 15 14 13 25 25 27 28 27 26 20 23 24 17 11 16 6 10 8 7 23 18 14 15 9 21 23 13 15 27 31 31
13 5 4 4 8 8 10 17 17 11 6 10 14 8 15 19 18 24 24 26 27 30 27 22 16 24 20 19 11 13 19 8 3 7 9 13 15 15 15 14 16 18 14 13 20
6 6 1 2 10 12 11 17 18 21 6 12 15 4 12 6 11 20 26 23 29 29 27 27 18 15 21 20 18 10 13 8 14 5 4 2 10 19 21 21 18 18 21 19 16
6 4 2 7 9 13 12 17 11 14 13 13 11 14 9 7 12 15 13 24 26 27 31 29 18 14 22 18 20 23 18 20 10 16 2 8 10 21 12 4 10 15 13 10 6
10 7 3 6 6 8 11 15 11 15 17 17 17 15 13 9 6 12 12 13 27 24 28 24 22 12 20 31 25 24 22 19 20 7 10 5 7 24 10 4 8 16 13 11 9
9 4 8 11 17 11 12 11 14 13 12 18 14 16 15 15 13 7 11 11 6 14 10 22 24 23 12 21 17 23 19 21 20 14 9 11 14 17 29 7 14 10 10 13 11
5 6 5 7 6 7 12 15 16 12 7 7 9 16 18 16 17 16 15 14 9 15 14 18 24 26 23 15 17 21 23 27 20 21 19 16 11 10 22 29 11 11 12 12 11
11 7 14 20 19 14 12 13 15 14 3 16 12 15 7 14 14 14 10 16 13 19 18 20 20 23 23 17 24 21 23 25 27 25 24 21 9 18 12 40 2 8 14 11 12
13 8 9 14 12 9 7 10 8 11 14 18 11 8 9 8 14 21 19 21 16 12 10 22 18 20 19 28 22 30 31 24 20 23 25 19 20 14 8 8 51 7 7 13 14
Wind_Direction
300 300 299 300 301 301 303 303 304 305 307 307 308 312 312 310 303 292 267 248 234 209 190 179 185 207 219 250 252 259 285 323 66 92 118 139 115 168 62 121 130 114 94 147 154
305 298 295 295 295 296 297 299 299 300 300 302 305 309 311 312 303 274 256 242 228 205 179 182 194 203 217 249 247 233 100 283 37 70 83 136 146 132 191 144 129 109 120 145 154
304 301 298 296 295 295 294 294 295 295 296 297 300 304 309 315 302 254 213 230 206 206 185 190 200 202 227 246 243 273 266 318 99 47 324 118 235 147 225 166 146 139 145 153 160
306 304 298 295 293 292 292 292 291 292 292 293 295 299 304 304 284 153 163 96 202 190 190 199 208 210 231 232 251 255 279 267 313 68 289 237 185 178 224 83 128 146 156 160 167
305 305 301 295 292 293 292 291 290 289 289 289 291 295 302 260 255 248 242 262 198 192 198 204 209 221 242 262 260 253 272 278 257 252 267 173 251 206 199 116 131 149 159 167 173
306 301 300 298 294 293 291 289 288 287 287 285 286 287 286 260 256 240 232 243 208 193 207 209 215 222 255 279 266 296 308 288 256 237 208 242 229 190 178 140 140 158 165 172 176
324 314 302 297 293 292 290 289 286 284 284 282 280 279 263 245 255 236 225 219 201 197 208 211 222 231 237 240 237 271 275 260 230 220 215 215 213 186 140 173 154 168 171 176 180
328 323 315 303 296 292 289 289 286 284 282 278 273 267 257 242 242 243 227 211 201 203 215 218 226 245 245 288 258 240 254 252 194 198 188 210 221 149 164 168 166 175 175 179 183
332 327 321 312 305 297 289 286 284 285 283 274 263 234 259 247 228 223 212 201 199 204 214 224 223 231 229 237 245 230 252 228 171 182 156 197 197 143 175 170 172 177 178 182 184
334 329 324 320 313 304 293 286 281 280 277 252 239 235 247 230 230 212 204 202 197 198 207 209 214 233 235 244 239 236 314 328 289 166 193 188 130 151 179 176 173 178 178 184 186
338 332 325 322 315 307 299 290 278 235 210 221 209 210 262 213 202 205 197 199 204 206 209 202 214 223 236 230 128 92 336 299 280 225 186 195 140 160 178 182 173 176 180 187 189
339 334 326 324 312 303 286 241 311 319 280 242 246 247 246 223 222 211 194 196 207 212 215 209 227 231 233 119 79 75 279 266 273 145 213 206 163 164 180 194 174 178 181 187 188
339 334 327 326 314 307 259 248 275 304 260 259 236 230 229 222 235 205 192 200 205 216 214 228 214 227 201 216 207 175 194 242 265 247 213 229 187 163 168 197 173 183 183 191 190
336 333 327 328 324 283 288 276 240 280 270 243 210 225 219 216 228 230 200 203 214 217 221 222 241 224 207 226 217 230 354 47 301 340 211 209 212 177 170 195 183 185 181 189 191
333 328 323 311 267 255 265 201 273 240 269 115 160 192 202 201 204 211 203 211 220 207 220 228 219 226 239 218 217 260 92 4 287 292 246 195 240 184 180 189 185 192 182 186 188
332 327 316 302 273 212 266 221 262 232 242 161 154 193 196 200 224 194 207 211 218 233 223 239 206 234 200 230 231 97 110 41 279 293 278 224 213 211 185 181 187 193 186 188 184
333 329 320 212 145 199 211 207 214 242 155 194 181 181 200 191 216 224 192 200 211 216 230 222 225 211 243 147 153 164 191 91 247 247 242 205 225 180 252 179 186 184 193 191 188
336 331 354 197 223 199 180 219 238 235 248 51 306 183 203 206 203 216 186 204 209 212 222 212 209 189 219 168 215 203 200 179 178 246 220 245 207 221 142 168 186 198 187 191 196
337 353 345 297 196 185 209 220 228 258 353 311 217 236 213 231 201 214 209 207 204 217 231 204 216 188 191 189 211 116 200 102 80 273 269 237 192 262 164 216 178 210 187 187 193
342 275 257 277 196 184 228 243 242 284 349 299 260 230 237 194 207 202 208 211 214 209 229 241 216 192 168 209 144 143 133 93 124 300 249 237 224 214 168 182 208 180 186 184 195
354 262 335 142 160 212 232 233 245 268 238 270 280 294 269 294 230 225 213 218 212 207 219 241 250 190 155 199 185 190 168 188 163 187 294 355 292 207 185 191 183 189 188 179 203
292 275 150 147 216 220 242 248 275 287 273 242 275 301 301 320 269 257 252 219 212 217 206 229 219 192 189 195 218 189 208 198 216 182 208 312 272 316 67 161 156 142 112 132 152
303 298 206 202 260 249 226 257 268 258 263 253 244 251 264 264 279 257 266 252 223 208 215 211 238 222 190 220 201 202 209 202 241 135 180 222 265 314 288 77 108 125 138 140 124
300 282 162 210 265 278 300 297 272 240 259 270 270 265 260 257 256 274 263 267 287 259 342 217 228 233 220 242 193 203 213 203 220 236 195 229 257 306 295 231 138 137 142 134 130
314 11 357 298 285 333 305 294 297 283 207 279 251 246 253 247 245 245 248 269 248 251 266 243 229 238 230 182 259 218 201 222 206 228 243 220 204 259 279 311 224 169 158 148 138
340 345 331 289 268 268 264 261 267 281 271 268 228 283 241 246 260 251 270 236 246 200 222 232 232 245 243 215 165 275 269 203 209 213 224 245 215 208 301 346 244 202 165 165 153
348 320 298 287 268 279 285 331 322 337 288 261 302 315 257 307 338 319 310 308 312 314 251 229 231 231 231 246 208 195 216 218 213 216 221 212 230 184 89 49 287 170 185 168 159